Sault Ste Marie, MI

5:48 AM EST on February 25, 2017 (GMT -0500)
Sault Ste Marie Municipal / Sanderson Field

Weather History for KANJ - November, 2012

Change the Weather History Date:

Monday, November 19, 2012

  Actual Average Record
Temperature  
Mean Temperature 44 °F 33 °F  
Max Temperature 49 °F 39 °F 64 °F (1941)
Min Temperature 38 °F 27 °F -7 °F (1894)
Degree Days  
Heating Degree Days 21 32  
Month to date heating degree days 519 545  
Since 1 July heating degree days 1426 1550  
Moisture  
Dew Point 37 °F    
Average Humidity 74    
Maximum Humidity 92    
Minimum Humidity 56    
Precipitation  
Precipitation T in 0.12 in 0.60 in (2007)
Month to date precipitation 0.71 2.15  
Year to date precipitation 24.96 28.94  
Snow  
Snow 0.00 in 0.60 in 8.00 in (2008)
Month to date snowfall T 7.4  
Since 1 July snowfall 5.9 9.0  
Snow Depth 0.00 in    
Sea Level Pressure  
Sea Level Pressure 30.27 in    
Wind  
Wind Speed 6 mph (ESE)    
Max Wind Speed 15 mph    
Max Gust Speed 19 mph    
Visibility 5 miles    
Events Rain    
T = Trace of Precipitation, MM = Missing Value Source: NWS Daily Summary

Daily Weather History Graph

Daily Weather History Graph

Search for Another Location

Airport or City:

Trip Planner

Search our weather history database for the weather conditions in past years. The results will help you decide how hot, cold, wet, or windy it might be!

Date:

Astronomy

Nov. 19, 2012 Rise Set
Actual Time 7:45 AM EST 4:59 PM EST
Civil Twilight 7:12 AM EST 5:33 PM EST
Nautical Twilight 6:35 AM EST 6:10 PM EST
Astronomical Twilight 5:59 AM EST 6:45 PM EST
Moon 12:40 PM EST (11/19) 11:35 PM EST (11/19)
Length of Visible Light 10h 20m
Length of Day
9h 14m
Waxing Crescent, 40% of the Moon is Illuminated
Nov 19
Waxing Crescent
Nov 20
First Quarter
Nov 28
Full
Dec 6
Last Quarter
Dec 13
New

Hourly Weather History & Observations

Time (EST) Temp. Windchill Dew Point Humidity Pressure Visibility Wind Dir Wind Speed Gust Speed Precip Events Conditions
12:55 AM 39.9 °F 35.1 °F 37.0 °F 89% 30.38 in 4.0 mi ESE 6.9 mph - N/A   Clear
1:55 AM 39.9 °F 35.1 °F 37.0 °F 89% 30.37 in 3.0 mi ESE 6.9 mph - N/A   Clear
2:55 AM 39.9 °F 35.1 °F 37.0 °F 89% 30.37 in 4.0 mi ESE 6.9 mph - N/A   Clear
3:55 AM 39.0 °F 34.8 °F 36.0 °F 89% 30.35 in 4.0 mi East 5.8 mph - N/A   Clear
4:55 AM 39.9 °F 35.8 °F 37.0 °F 89% 30.35 in 3.0 mi ESE 5.8 mph - N/A   Scattered Clouds
5:28 AM 39.0 °F 36.8 °F 37.0 °F 93% 30.33 in 2.0 mi East 3.5 mph - N/A   Scattered Clouds
5:55 AM 39.0 °F 36.8 °F 37.0 °F 93% 30.35 in 2.5 mi East 3.5 mph - N/A   Overcast
6:21 AM 39.0 °F 35.7 °F 36.0 °F 89% 30.32 in 1.8 mi ENE 4.6 mph - N/A   Mostly Cloudy
6:50 AM 39.2 °F 37.0 °F 37.4 °F 93% 30.32 in 2.0 mi East 3.5 mph - N/A   Overcast
6:55 AM 39.0 °F 36.8 °F 37.0 °F 93% 30.34 in 1.8 mi East 3.5 mph - N/A   Overcast
7:22 AM 39.0 °F 34.8 °F 36.0 °F 89% 30.31 in 2.5 mi ESE 5.8 mph - N/A   Partly Cloudy
7:29 AM 39.0 °F 33.4 °F 36.0 °F 89% 30.31 in 4.0 mi ESE 8.1 mph - N/A   Clear
7:55 AM 39.9 °F 35.1 °F 36.0 °F 86% 30.32 in 4.0 mi ESE 6.9 mph - N/A   Clear
8:55 AM 39.9 °F 35.8 °F 37.0 °F 89% 30.31 in 3.0 mi East 5.8 mph - N/A   Overcast
9:55 AM 42.1 °F 37.7 °F 37.9 °F 85% 30.30 in 6.0 mi ESE 6.9 mph - N/A   Clear
10:55 AM 44.1 °F 38.6 °F 37.9 °F 79% 30.29 in 7.0 mi SE 10.4 mph - N/A   Clear
11:55 AM 46.0 °F 41.9 °F 39.0 °F 76% 30.27 in 7.0 mi ESE 8.1 mph - N/A   Clear
12:55 PM 48.0 °F - 36.0 °F 63% 30.24 in 10.0 mi SE 9.2 mph - N/A   Scattered Clouds
1:55 PM 48.0 °F - 33.1 °F 56% 30.23 in 10.0 mi SE 11.5 mph - N/A   Clear
2:55 PM 48.0 °F - 34.0 °F 58% 30.22 in 10.0 mi SE 8.1 mph - N/A   Mostly Cloudy
3:55 PM 46.9 °F - 37.0 °F 68% 30.21 in 10.0 mi SE 8.1 mph - N/A   Mostly Cloudy
4:55 PM 45.0 °F 40.6 °F 37.9 °F 76% 30.20 in 9.0 mi SE 8.1 mph - N/A   Overcast
5:55 PM 45.0 °F 42.6 °F 37.9 °F 76% 30.20 in 9.0 mi ESE 4.6 mph - N/A   Clear
6:55 PM 44.1 °F 40.8 °F 37.9 °F 79% 30.19 in 7.0 mi East 5.8 mph - N/A   Clear
7:55 PM 43.0 °F 40.3 °F 37.9 °F 82% 30.18 in 7.0 mi ESE 4.6 mph - N/A   Scattered Clouds
8:55 PM 43.0 °F 40.3 °F 37.9 °F 82% 30.17 in 6.0 mi ESE 4.6 mph - N/A   Haze
9:55 PM 43.0 °F 40.3 °F 39.0 °F 86% 30.16 in 6.0 mi East 4.6 mph - N/A   Overcast
10:55 PM 43.0 °F 41.3 °F 39.0 °F 86% 30.15 in 5.0 mi East 3.5 mph - 0.00 in Rain Light Rain
11:55 PM 43.0 °F 40.3 °F 39.0 °F 86% 30.13 in 5.0 mi East 4.6 mph - 0.00 in   Overcast